Time,TemperatureF,DewpointF,PressureIn,WindDirection,WindDirectionDegrees,WindSpeedMPH,WindSpeedGustMPH,Humidity,HourlyPrecipIn,Conditions,Clouds,dailyrainin,SolarRadiationWatts/m^2,SoftwareType,DateUTC
2013-04-09 00:04:00,60.6,58.3,30.10,West,263,0.0,0.0,92,0.00,,,0.00,0,Wunderground v.1.15,2013-04-08 14:04:00,
2013-04-09 00:09:00,60.7,58.4,30.10,West,263,0.0,0.0,92,0.00,,,0.00,0,Wunderground v.1.15,2013-04-08 14:09:00,
2013-04-09 06:04:00,60.1,57.8,30.10,SSW,194,0.0,0.0,92,0.00,,,0.00,0,Wunderground v.1.15,2013-04-08 20:04:00,
2013-04-09 06:14:00,59.8,57.8,30.10,WSW,255,0.0,0.0,93,0.00,,,0.00,0,Wunderground v.1.15,2013-04-08 20:14:00,
2013-04-09 06:24:00,60.0,58.0,30.10,SW,232,0.0,1.0,93,0.00,,,0.00,7,Wunderground v.1.15,2013-04-08 20:24:00,
2013-04-09 06:34:00,60.2,58.2,30.11,SW,225,0.0,1.0,93,0.00,,,0.00,11,Wunderground v.1.15,2013-04-08 20:34:00,
2013-04-09 06:39:00,60.1,58.1,30.11,SW,225,0.0,0.0,93,0.00,,,0.00,11,Wunderground v.1.15,2013-04-08 20:39:00,
2013-04-09 06:44:00,60.1,58.1,30.10,SW,225,0.0,1.0,93,0.00,,,0.00,12,Wunderground v.1.15,2013-04-08 20:44:00,
2013-04-09 06:54:00,60.2,58.2,30.11,SW,225,0.0,0.0,93,0.00,,,0.00,16,Wunderground v.1.15,2013-04-08 20:54:00,
2013-04-09 06:59:00,60.2,58.2,30.11,SW,225,0.0,0.0,93,0.00,,,0.00,19,Wunderground v.1.15,2013-04-08 20:59:00,
2013-04-09 07:09:00,60.1,58.1,30.12,WSW,247,0.0,0.0,93,0.00,,,0.00,28,Wunderground v.1.15,2013-04-08 21:09:00,
2013-04-09 07:14:00,60.2,58.2,30.12,WSW,246,0.0,0.0,93,0.00,,,0.00,44,Wunderground v.1.15,2013-04-08 21:14:00,
2013-04-09 07:19:00,60.5,58.5,30.12,SW,233,1.0,1.0,93,0.00,,,0.00,46,Wunderground v.1.15,2013-04-08 21:19:00,
2013-04-09 07:24:00,60.8,58.8,30.12,SSW,208,1.0,1.0,93,0.00,,,0.00,51,Wunderground v.1.15,2013-04-08 21:24:00,
2013-04-09 07:29:00,61.0,58.7,30.13,SSW,208,0.0,1.0,92,0.00,,,0.00,95,Wunderground v.1.15,2013-04-08 21:29:00,
2013-04-09 07:39:00,61.6,59.3,30.13,SSW,208,0.0,0.0,92,0.00,,,0.00,120,Wunderground v.1.15,2013-04-08 21:39:00,
2013-04-09 07:49:00,62.4,60.0,30.13,SW,218,0.0,0.0,92,0.00,,,0.00,334,Wunderground v.1.15,2013-04-08 21:49:00,
2013-04-09 07:54:00,62.8,60.1,30.13,SSW,206,1.0,1.0,91,0.00,,,0.00,102,Wunderground v.1.15,2013-04-08 21:54:00,
2013-04-09 07:59:00,63.2,60.2,30.13,SSW,206,0.0,1.0,90,0.00,,,0.00,111,Wunderground v.1.15,2013-04-08 21:59:00,
2013-04-09 08:09:00,63.7,60.4,30.13,West,261,2.0,2.0,89,0.00,,,0.00,355,Wunderground v.1.15,2013-04-08 22:09:00,
2013-04-09 08:14:00,64.4,60.4,30.13,West,263,2.0,2.0,87,0.00,,,0.00,392,Wunderground v.1.15,2013-04-08 22:14:00,
2013-04-09 08:19:00,65.0,60.7,30.13,SW,225,1.0,2.0,86,0.00,,,0.00,190,Wunderground v.1.15,2013-04-08 22:19:00,
2013-04-09 08:24:00,65.6,61.0,30.13,South,191,1.0,3.0,85,0.00,,,0.00,366,Wunderground v.1.15,2013-04-08 22:24:00,
2013-04-09 08:34:00,65.5,60.5,30.14,South,189,2.0,2.0,84,0.00,,,0.00,320,Wunderground v.1.15,2013-04-08 22:34:00,
2013-04-09 08:39:00,65.8,60.8,30.14,SSW,206,2.0,2.0,84,0.00,,,0.00,195,Wunderground v.1.15,2013-04-08 22:39:00,
2013-04-09 08:44:00,66.3,61.3,30.14,West,271,1.0,1.0,84,0.00,,,0.00,522,Wunderground v.1.15,2013-04-08 22:44:00,
2013-04-09 08:54:00,67.4,61.7,30.14,West,262,2.0,4.0,82,0.00,,,0.00,515,Wunderground v.1.15,2013-04-08 22:54:00,
2013-04-09 09:04:00,68.1,62.0,30.14,SW,221,2.0,3.0,81,0.00,,,0.00,533,Wunderground v.1.15,2013-04-08 23:04:00,
2013-04-09 09:14:00,69.1,62.3,30.13,SW,232,2.0,2.0,79,0.00,,,0.00,566,Wunderground v.1.15,2013-04-08 23:14:00,
2013-04-09 09:19:00,69.2,62.0,30.14,West,259,2.0,3.0,78,0.00,,,0.00,527,Wunderground v.1.15,2013-04-08 23:19:00,
2013-04-09 09:29:00,69.8,62.3,30.13,SSE,161,1.0,4.0,77,0.00,,,0.00,645,Wunderground v.1.15,2013-04-08 23:29:00,
2013-04-09 09:34:00,70.0,62.5,30.13,SW,227,2.0,2.0,77,0.00,,,0.00,677,Wunderground v.1.15,2013-04-08 23:34:00,
2013-04-09 09:44:00,70.3,62.7,30.14,SSW,212,2.0,2.0,77,0.00,,,0.00,837,Wunderground v.1.15,2013-04-08 23:44:00,
2013-04-09 09:49:00,71.6,62.9,30.14,SW,220,2.0,5.0,74,0.00,,,0.00,744,Wunderground v.1.15,2013-04-08 23:49:00,
2013-04-09 09:59:00,70.5,62.2,30.13,SSW,206,3.0,3.0,75,0.00,,,0.00,666,Wunderground v.1.15,2013-04-08 23:59:00,
2013-04-09 10:04:00,70.2,62.3,30.13,West,263,3.0,3.0,76,0.00,,,0.00,670,Wunderground v.1.15,2013-04-09 00:04:00,
2013-04-09 10:14:00,71.3,63.0,30.12,West,261,3.0,3.0,75,0.00,,,0.00,735,Wunderground v.1.15,2013-04-09 00:14:00,
2013-04-09 10:19:00,72.2,62.7,30.12,SSE,165,2.0,3.0,72,0.00,,,0.00,174,Wunderground v.1.15,2013-04-09 00:19:00,
2013-04-09 10:24:00,71.3,61.8,30.12,SW,225,2.0,2.0,72,0.00,,,0.00,524,Wunderground v.1.15,2013-04-09 00:24:00,
2013-04-09 10:34:00,70.6,61.9,30.12,SW,227,2.0,2.0,74,0.00,,,0.00,206,Wunderground v.1.15,2013-04-09 00:34:00,
2013-04-09 10:44:00,70.5,61.8,30.12,SW,223,1.0,1.0,74,0.00,,,0.00,171,Wunderground v.1.15,2013-04-09 00:44:00,
2013-04-09 10:54:00,69.8,63.0,30.12,WNW,298,1.0,2.0,79,0.00,,,0.00,146,Wunderground v.1.15,2013-04-09 00:54:00,
2013-04-09 10:59:00,69.3,62.9,30.12,West,267,1.0,2.0,80,0.00,,,0.00,162,Wunderground v.1.15,2013-04-09 00:59:00,
2013-04-09 11:09:00,69.4,62.6,30.12,ENE,71,0.0,1.0,79,0.00,,,0.00,142,Wunderground v.1.15,2013-04-09 01:09:00,
2013-04-09 11:19:00,69.7,62.2,30.12,ENE,61,0.0,1.0,77,0.00,,,0.00,181,Wunderground v.1.15,2013-04-09 01:19:00,
2013-04-09 11:24:00,70.0,62.1,30.12,South,183,0.0,1.0,76,0.00,,,0.00,197,Wunderground v.1.15,2013-04-09 01:24:00,
2013-04-09 11:34:00,70.0,62.8,30.11,South,184,1.0,1.0,78,0.00,,,0.00,276,Wunderground v.1.15,2013-04-09 01:34:00,
2013-04-09 11:39:00,71.9,63.9,30.10,WSW,240,1.0,1.0,76,0.00,,,0.00,773,Wunderground v.1.15,2013-04-09 01:39:00,
2013-04-09 11:49:00,72.7,62.3,30.10,SW,220,2.0,2.0,70,0.00,,,0.00,534,Wunderground v.1.15,2013-04-09 01:49:00,
2013-04-09 11:59:00,73.2,63.6,30.09,WSW,245,2.0,4.0,72,0.00,,,0.00,345,Wunderground v.1.15,2013-04-09 01:59:00,
2013-04-09 12:09:00,73.7,63.3,30.09,SSE,161,2.0,5.0,70,0.00,,,0.00,165,Wunderground v.1.15,2013-04-09 02:09:00,
2013-04-09 12:14:00,72.4,63.3,30.09,NE,44,1.0,1.0,73,0.00,,,0.00,123,Wunderground v.1.15,2013-04-09 02:14:00,
2013-04-09 12:24:00,70.9,62.6,30.08,NNW,328,1.0,1.0,75,0.00,,,0.00,287,Wunderground v.1.15,2013-04-09 02:24:00,
2013-04-09 12:29:00,71.2,62.5,30.08,NNW,333,1.0,1.0,74,0.00,,,0.00,248,Wunderground v.1.15,2013-04-09 02:29:00,
2013-04-09 14:19:00,68.8,61.7,30.07,WSW,255,0.0,0.0,78,0.00,,,0.00,72,Wunderground v.1.15,2013-04-09 04:19:00,
2013-04-09 14:24:00,68.8,61.7,30.06,SW,215,0.0,2.0,78,0.00,,,0.00,84,Wunderground v.1.15,2013-04-09 04:24:00,
2013-04-09 14:29:00,68.0,60.9,30.06,SSW,209,2.0,4.0,78,0.00,,,0.00,95,Wunderground v.1.15,2013-04-09 04:29:00,
2013-04-09 14:39:00,66.5,61.5,30.06,SW,227,2.0,2.0,84,0.00,,,0.00,77,Wunderground v.1.15,2013-04-09 04:39:00,
2013-04-09 14:49:00,66.0,61.7,30.06,SSW,202,1.0,1.0,86,0.00,,,0.00,86,Wunderground v.1.15,2013-04-09 04:49:00,
2013-04-09 14:59:00,66.1,62.1,30.06,ENE,78,1.0,1.0,87,0.00,,,0.00,46,Wunderground v.1.15,2013-04-09 04:59:00,
2013-04-09 15:04:00,66.2,62.2,30.07,WSW,246,1.0,1.0,87,0.00,,,0.00,37,Wunderground v.1.15,2013-04-09 05:04:00,
2013-04-09 15:14:00,66.4,62.4,30.06,SSW,198,1.0,1.0,87,0.00,,,0.00,32,Wunderground v.1.15,2013-04-09 05:14:00,
2013-04-09 15:19:00,66.2,62.2,30.06,WNW,284,1.0,2.0,87,0.00,,,0.00,30,Wunderground v.1.15,2013-04-09 05:19:00,
2013-04-09 15:29:00,65.3,62.0,30.06,ENE,73,2.0,4.0,89,0.00,,,0.00,30,Wunderground v.1.15,2013-04-09 05:29:00,
2013-04-09 15:39:00,64.5,61.2,30.06,SSW,201,1.0,4.0,89,0.00,,,0.00,32,Wunderground v.1.15,2013-04-09 05:39:00,
2013-04-09 15:44:00,64.2,61.2,30.06,NNE,32,1.0,3.0,90,0.00,,,0.00,33,Wunderground v.1.15,2013-04-09 05:44:00,
2013-04-09 15:49:00,63.9,60.9,30.06,ESE,121,1.0,3.0,90,0.00,,,0.00,37,Wunderground v.1.15,2013-04-09 05:49:00,
2013-04-09 15:59:00,63.8,60.8,30.06,ENE,65,1.0,1.0,90,0.00,,,0.00,44,Wunderground v.1.15,2013-04-09 05:59:00,
2013-04-09 16:09:00,63.7,61.0,30.06,NE,42,1.0,1.0,91,0.00,,,0.00,49,Wunderground v.1.15,2013-04-09 06:09:00,
2013-04-09 16:14:00,63.8,61.1,30.06,NE,56,1.0,1.0,91,0.00,,,0.00,51,Wunderground v.1.15,2013-04-09 06:14:00,
2013-04-09 16:24:00,64.1,61.7,30.05,NE,43,1.0,1.0,92,0.00,,,0.00,62,Wunderground v.1.15,2013-04-09 06:24:00,
2013-04-09 16:29:00,64.3,61.9,30.06,North,11,1.0,1.0,92,0.00,,,0.00,67,Wunderground v.1.15,2013-04-09 06:29:00,
2013-04-09 16:39:00,64.4,62.0,30.06,NE,36,0.0,0.0,92,0.00,,,0.00,62,Wunderground v.1.15,2013-04-09 06:39:00,
2013-04-09 16:49:00,64.4,62.0,30.05,NNE,17,1.0,1.0,92,0.00,,,0.00,53,Wunderground v.1.15,2013-04-09 06:49:00,
2013-04-09 16:54:00,64.4,62.0,30.05,NNE,28,1.0,1.0,92,0.00,,,0.00,46,Wunderground v.1.15,2013-04-09 06:54:00,
2013-04-09 17:04:00,64.6,62.2,30.05,NNE,28,0.0,0.0,92,0.00,,,0.00,35,Wunderground v.1.15,2013-04-09 07:04:00,
2013-04-09 17:09:00,64.6,62.2,30.05,NNE,28,0.0,0.0,92,0.00,,,0.00,30,Wunderground v.1.15,2013-04-09 07:09:00,
2013-04-09 17:14:00,64.6,62.2,30.05,NNE,28,0.0,0.0,92,0.00,,,0.00,44,Wunderground v.1.15,2013-04-09 07:14:00,
2013-04-09 17:24:00,64.4,62.0,30.05,NNE,28,0.0,1.0,92,0.00,,,0.00,21,Wunderground v.1.15,2013-04-09 07:24:00,
2013-04-09 17:29:00,64.3,61.9,30.06,NNE,28,0.0,1.0,92,0.00,,,0.00,12,Wunderground v.1.15,2013-04-09 07:29:00,
2013-04-09 17:34:00,64.2,61.5,30.06,NNE,28,0.0,0.0,91,0.00,,,0.00,9,Wunderground v.1.15,2013-04-09 07:34:00,
2013-04-09 17:39:00,64.1,61.4,30.06,NNE,28,0.0,0.0,91,0.00,,,0.00,0,Wunderground v.1.15,2013-04-09 07:39:00,
2013-04-09 17:49:00,63.7,61.3,30.06,NNE,28,0.0,0.0,92,0.00,,,0.00,0,Wunderground v.1.15,2013-04-09 07:49:00,
2013-04-09 17:59:00,63.1,60.7,30.07,NNE,28,0.0,0.0,92,0.00,,,0.00,0,Wunderground v.1.15,2013-04-09 07:59:00,
2013-04-09 18:04:00,62.8,60.4,30.07,NNE,28,0.0,0.0,92,0.00,,,0.00,0,Wunderground v.1.15,2013-04-09 08:04:00,
2013-04-09 18:14:00,62.5,60.1,30.07,NNE,28,0.0,0.0,92,0.00,,,0.00,0,Wunderground v.1.15,2013-04-09 08:14:00,
2013-04-09 18:19:00,62.4,60.0,30.07,NNE,28,0.0,0.0,92,0.00,,,0.00,0,Wunderground v.1.15,2013-04-09 08:19:00,
2013-04-09 18:24:00,62.4,60.3,30.07,NNE,28,0.0,0.0,93,0.00,,,0.00,0,Wunderground v.1.15,2013-04-09 08:24:00,
2013-04-09 18:34:00,62.2,59.8,30.07,NNE,27,0.0,0.0,92,0.00,,,0.00,0,Wunderground v.1.15,2013-04-09 08:34:00,
2013-04-09 18:44:00,62.1,60.1,30.08,NNE,28,0.0,0.0,93,0.00,,,0.00,0,Wunderground v.1.15,2013-04-09 08:44:00,
2013-04-09 18:54:00,62.0,60.0,30.08,NNE,28,0.0,0.0,93,0.00,,,0.00,0,Wunderground v.1.15,2013-04-09 08:54:00,
2013-04-09 18:59:00,61.9,59.9,30.08,NNE,27,0.0,0.0,93,0.00,,,0.00,0,Wunderground v.1.15,2013-04-09 08:59:00,
2013-04-09 19:09:00,61.6,59.6,30.08,NNE,28,0.0,0.0,93,0.00,,,0.00,0,Wunderground v.1.15,2013-04-09 09:09:00,
2013-04-09 19:14:00,61.6,59.6,30.08,NNE,27,0.0,0.0,93,0.00,,,0.00,0,Wunderground v.1.15,2013-04-09 09:14:00,
2013-04-09 19:19:00,61.5,59.5,30.08,NNE,28,0.0,0.0,93,0.00,,,0.00,0,Wunderground v.1.15,2013-04-09 09:19:00,
2013-04-09 19:29:00,61.7,59.7,30.09,NNE,28,0.0,0.0,93,0.00,,,0.00,0,Wunderground v.1.15,2013-04-09 09:29:00,
2013-04-09 19:34:00,61.7,60.0,30.09,NNE,28,0.0,0.0,94,0.00,,,0.00,0,Wunderground v.1.15,2013-04-09 09:34:00,
2013-04-09 19:39:00,61.7,60.0,30.09,NNE,28,0.0,0.0,94,0.00,,,0.00,0,Wunderground v.1.15,2013-04-09 09:39:00,
2013-04-09 19:44:00,61.6,59.9,30.09,NNE,28,0.0,0.0,94,0.00,,,0.00,0,Wunderground v.1.15,2013-04-09 09:44:00,
2013-04-09 19:49:00,61.5,59.8,30.09,NNE,28,0.0,0.0,94,0.00,,,0.00,0,Wunderground v.1.15,2013-04-09 09:49:00,
2013-04-09 19:54:00,61.7,60.0,30.09,NNE,28,0.0,0.0,94,0.00,,,0.00,0,Wunderground v.1.15,2013-04-09 09:54:00,
2013-04-09 20:04:00,61.7,60.0,30.09,NNE,27,0.0,0.0,94,0.00,,,0.00,0,Wunderground v.1.15,2013-04-09 10:04:00,
2013-04-09 20:14:00,61.5,59.8,30.09,NNE,28,0.0,0.0,94,0.00,,,0.00,0,Wunderground v.1.15,2013-04-09 10:14:00,
2013-04-09 20:24:00,61.2,59.5,30.09,NNE,28,0.0,0.0,94,0.00,,,0.00,0,Wunderground v.1.15,2013-04-09 10:24:00,
2013-04-09 20:34:00,61.0,59.3,30.09,NNE,28,0.0,0.0,94,0.00,,,0.00,0,Wunderground v.1.15,2013-04-09 10:34:00,
2013-04-09 20:49:00,60.9,59.2,30.09,NNE,28,0.0,0.0,94,0.00,,,0.00,0,Wunderground v.1.15,2013-04-09 10:49:00,
2013-04-09 20:59:00,60.8,59.1,30.09,NNE,28,0.0,0.0,94,0.00,,,0.00,0,Wunderground v.1.15,2013-04-09 10:59:00,
2013-04-09 21:04:00,60.8,59.4,30.09,NNE,28,0.0,0.0,95,0.00,,,0.00,0,Wunderground v.1.15,2013-04-09 11:04:00,
2013-04-09 21:14:00,61.1,59.7,30.09,NNE,28,0.0,0.0,95,0.00,,,0.00,0,Wunderground v.1.15,2013-04-09 11:14:00,
2013-04-09 21:19:00,61.3,59.9,30.10,NNE,28,0.0,1.0,95,0.00,,,0.00,0,Wunderground v.1.15,2013-04-09 11:19:00,
2013-04-09 21:24:00,61.4,60.0,30.10,ENE,63,1.0,1.0,95,0.00,,,0.00,0,Wunderground v.1.15,2013-04-09 11:24:00,
2013-04-09 21:34:00,61.6,60.2,30.10,ENE,61,0.0,0.0,95,0.00,,,0.00,0,Wunderground v.1.15,2013-04-09 11:34:00,
2013-04-09 21:44:00,61.7,60.3,30.10,ENE,61,0.0,0.0,95,0.00,,,0.00,0,Wunderground v.1.15,2013-04-09 11:44:00,
2013-04-09 21:49:00,61.7,60.3,30.10,ENE,61,0.0,0.0,95,0.00,,,0.00,0,Wunderground v.1.15,2013-04-09 11:49:00,
2013-04-09 21:59:00,61.7,60.3,30.10,ENE,61,0.0,0.0,95,0.00,,,0.00,0,Wunderground v.1.15,2013-04-09 11:59:00,
2013-04-09 22:04:00,61.6,60.2,30.10,ENE,61,0.0,0.0,95,0.00,,,0.00,0,Wunderground v.1.15,2013-04-09 12:04:00,
2013-04-09 22:09:00,61.4,60.0,30.10,ENE,61,0.0,0.0,95,0.00,,,0.00,0,Wunderground v.1.15,2013-04-09 12:09:00,
2013-04-09 22:19:00,60.9,59.5,30.10,NNW,342,1.0,1.0,95,0.00,,,0.00,0,Wunderground v.1.15,2013-04-09 12:19:00,
2013-04-09 22:29:00,60.6,59.2,30.10,NW,321,1.0,1.0,95,0.00,,,0.00,0,Wunderground v.1.15,2013-04-09 12:29:00,
2013-04-09 22:39:00,60.6,59.2,30.09,NNW,331,1.0,1.0,95,0.00,,,0.00,0,Wunderground v.1.15,2013-04-09 12:39:00,
2013-04-09 22:44:00,60.6,59.2,30.09,NW,321,1.0,1.0,95,0.00,,,0.00,0,Wunderground v.1.15,2013-04-09 12:44:00,
2013-04-09 22:54:00,60.4,59.0,30.09,NW,321,0.0,0.0,95,0.00,,,0.00,0,Wunderground v.1.15,2013-04-09 12:54:00,
2013-04-09 22:59:00,60.3,58.9,30.09,NW,321,0.0,0.0,95,0.00,,,0.00,0,Wunderground v.1.15,2013-04-09 12:59:00,
2013-04-09 23:04:00,60.2,58.8,30.08,NW,321,0.0,0.0,95,0.00,,,0.00,0,Wunderground v.1.15,2013-04-09 13:04:00,
2013-04-09 23:09:00,60.1,58.7,30.09,NW,321,0.0,1.0,95,0.00,,,0.00,0,Wunderground v.1.15,2013-04-09 13:09:00,
2013-04-09 23:19:00,60.1,58.7,30.08,NW,321,0.0,1.0,95,0.00,,,0.00,0,Wunderground v.1.15,2013-04-09 13:19:00,
2013-04-09 23:29:00,60.0,58.6,30.08,NW,321,0.0,0.0,95,0.00,,,0.00,0,Wunderground v.1.15,2013-04-09 13:29:00,
2013-04-09 23:34:00,59.9,58.5,30.08,NW,321,0.0,0.0,95,0.00,,,0.00,0,Wunderground v.1.15,2013-04-09 13:34:00,